Location: Olsztyn
(53.7767°N, 20.4765°E)
Time: 08:46:56
(UTC+01:00)

Transit 4A - Pass Details

Date: 08 October 2022
Orbit: 871 x 972 km, 66.8° (Epoch: 06 December)

Event Time Altitude Azimuth Distance (km) Brightness Sun altitude
Exits shadow 23:43:14 13° 34° (NE) 2,323 10.3 -41.6°
Drops below altitude 10° 23:43:57 10° 37° (NE) 2,565 10.5 -41.6°
Sets 23:46:36 0° 45° (NE) 3,495 11.2 -41.7°
